EHI
1 4 9 9 5 4 3 2 1 0 0 0 0 0 0 0 0 0 0 0 0 0 0 0 0 1 1 1 0 0 0 0 0 0 0 0 0 0 0 0 0 0 0
1 4 8 8 6 4 3 3 1 0 0 0 0 0 0 0 0 0 0 0 0 0 0 0 0 0 0 0 0 0 0 0 0 0 0 0 0 0 0 0 0 0 0
2 4 6 7 6 5 3 3 2 0 0 0 0 0 0 0 0 0 0 0 0 0 0 0 0 0 0 0 0 0 0 0 0 0 0 0 0 0 0 0 0 0 0
3 4 6 8 8 6 4 2 1 0 0 0 0 0 0 0 0 0 0 0 0 0 0 0 0 0 0 0 0 0 0 0 0 0 0 0 0 0 0 0 0 0 0
3 5 8 11 11 8 4 1 1 0 0 0 0 0 0 0 0 0 0 0 0 0 0 0 0 0 0 0 0 0 0 0 0 0 0 0 0 0 0 0 0 0 0
5 7 12 15 14 9 3 0 0 0 0 0 0 0 0 0 0 0 0 0 0 0 0 0 0 0 0 0 0 0 0 0 0 0 0 0 0 0 0 0 0 0 0
7 9 13 17 17 10 4 1 1 1 0 0 0 0 0 0 0 0 0 0 0 0 0 0 0 0 0 0 0 0 0 0 0 0 0 0 0 0 0 0 0 0 0
9 10 13 16 16 11 6 4 4 3 1 1 1 0 0 1 1 0 0 0 0 0 0 0 0 0 0 0 0 0 0 0 0 0 0 0 0 0 0 0 0 1 1
8 10 12 13 11 9 7 6 5 4 3 2 1 0 0 1 1 0 0 0 0 0 0 0 0 0 0 0 0 0 0 0 0 0 0 0 0 0 0 0 1 2 2
8 9 11 11 8 6 5 4 4 3 3 2 1 0 0 1 1 0 0 0 0 0 0 0 0 0 0 0 0 0 0 0 0 0 0 0 0 0 1 1 1 2 2
8 9 11 9 7 4 3 2 2 1 1 1 0 0 0 0 0 0 0 0 0 0 0 0 0 0 0 0 0 0 0 0 0 0 0 0 0 0 1 2 1 1 1
8 9 10 9 7 5 3 1 1 0 0 0 0 0 0 0 0 0 0 0 0 0 0 0 0 0 0 0 0 0 0 0 0 0 0 0 1 1 1 1 1 0 0
7 8 9 9 8 6 4 2 1 1 1 1 1 0 0 0 0 0 0 0 0 0 0 0 0 0 0 0 0 0 0 0 0 0 0 0 1 2 2 1 1 0 0
6 7 9 9 8 6 6 4 3 3 3 3 2 1 0 0 0 0 0 0 0 0 0 0 0 0 0 0 0 0 0 0 0 0 0 0 1 2 2 2 1 0 0
5 6 8 9 7 6 6 6 5 5 4 3 2 1 0 0 0 0 0 0 0 0 0 0 0 0 0 0 0 0 0 0 0 0 0 0 0 1 1 1 0 0 0
4 6 8 7 6 6 6 6 6 4 3 3 2 1 0 0 0 0 0 0 0 0 0 0 0 0 0 0 0 0 0 0 0 0 0 0 0 0 0 0 0 0 0
4 6 7 6 4 5 6 6 5 4 3 2 1 0 0 0 0 0 0 0 0 0 0 0 0 0 0 0 0 0 0 0 0 0 0 0 0 0 0 0 0 0 0
4 5 6 4 3 4 5 5 4 3 2 1 0 0 0 0 0 0 0 0 0 0 0 0 0 0 0 0 0 0 0 0 0 0 0 0 0 0 0 0 0 0 0
3 3 4 4 3 4 5 4 3 3 1 0 0 0 0 0 0 0 0 0 0 0 0 0 0 0 0 0 0 0 0 0 0 0 0 0 0 0 0 0 0 0 0
1 1 2 3 3 3 3 3 3 2 1 0 0 0 0 0 0 0 0 0 0 0 0 0 0 0 0 0 0 0 0 0 0 0 0 0 0 0 0 0 0 0 0
0 0 1 2 3 2 2 2 1 1 0 0 0 0 0 0 0 0 0 0 0 0 0 0 0 0 0 0 0 0 0 0 0 0 0 0 0 0 0 0 0 0 0
0 0 1 3 3 1 0 0 0 0 0 0 0 0 0 0 0 0 0 0 0 0 0 0 0 0 0 0 0 0 0 0 0 0 0 0 0 0 0 0 0 0 0
0 1 2 3 2 1 0 0 0 0 0 0 0 0 0 0 0 0 0 0 0 0 0 0 0 0 0 0 0 0 0 0 0 0 0 0 0 0 0 0 0 0 0
0 1 2 2 1 0 0 0 0 0 0 0 0 0 0 0 0 0 0 0 0 0 0 0 0 0 0 0 0 0 0 0 0 0 0 0 0 0 0 0 0 0 0
0 1 1 1 0 0 0 0 0 0 0 0 0 0 0 0 0 0 0 0 0 0 0 0 0 0 0 0 0 0 0 0 0 0 0 0 0 0 0 0 0 0 0
0 0 1 0 0 0 0 0 0 0 0 0 0 0 0 0 0 0 0 0 0 0 0 0 0 0 0 0 0 0 0 0 0 0 0 0 0 0 0 0 0 0 0
Wind_Speed
8 8 8 9 10 10 10 10 10 10 11 11 11 11 11 11 11 11 11 11 11 12 12 13 13 14 14 14 15 15 15 15 15 15 14 14 14 14 14 11 11 12 14
9 9 9 9 10 11 10 10 10 10 11 11 11 11 11 11 11 11 11 11 11 11 12 12 13 13 14 14 14 15 15 14 14 12 10 11 12 13 14 13 12 11 14
10 10 11 10 11 11 11 11 11 11 11 11 11 11 11 11 11 11 11 11 11 11 12 12 13 13 13 14 14 14 14 13 12 9 7 9 11 13 14 13 13 14 14
10 10 10 11 11 11 11 11 11 11 11 11 11 11 11 11 11 11 11 11 11 12 12 13 13 13 13 13 13 13 13 12 10 6 7 9 9 13 13 13 13 13 14
10 9 10 11 11 11 11 11 11 11 11 11 11 11 10 10 11 11 11 11 11 12 12 12 12 12 12 12 13 13 12 11 8 8 9 9 9 12 13 13 13 14 14
10 10 11 11 11 11 11 11 11 11 11 11 11 11 10 10 10 11 11 11 11 12 12 12 12 12 12 12 12 12 11 8 7 8 8 8 9 12 13 13 13 13 13
10 9 11 11 11 11 11 11 11 11 11 11 11 11 10 10 11 11 11 11 11 11 11 11 11 12 12 12 12 12 11 8 8 8 8 8 9 12 12 13 13 13 13
10 9 10 11 11 11 11 11 11 11 11 11 11 11 10 10 10 11 10 10 11 11 11 11 11 12 12 12 12 11 10 7 7 8 8 8 10 11 12 12 12 12 12
9 9 9 10 10 10 11 11 11 11 11 11 11 11 10 10 10 10 10 10 10 11 11 10 11 12 12 12 12 12 11 9 7 6 7 7 9 10 11 11 11 12 12
8 8 8 8 9 9 9 10 10 10 10 11 11 11 11 10 10 10 9 9 10 10 10 11 11 12 12 12 12 11 8 6 8 7 6 7 10 10 10 10 10 10 11
7 7 8 8 8 8 8 9 9 9 9 9 9 10 8 6 7 7 9 9 9 10 11 11 11 12 11 11 11 8 5 5 7 6 6 9 10 10 10 10 10 9 10
10 8 7 8 8 8 6 6 5 5 6 6 6 7 5 5 5 6 9 10 10 10 11 11 11 9 6 5 6 5 4 7 6 5 6 10 10 10 10 10 10 10 9
10 9 8 7 7 7 6 5 4 3 4 5 6 6 5 5 4 4 4 5 6 7 6 7 5 5 5 4 4 5 6 5 4 5 7 10 10 10 10 10 10 10 10
10 9 8 8 7 7 6 5 5 4 4 4 5 5 4 3 4 3 3 3 3 3 4 3 3 5 5 6 6 6 6 4 4 4 7 11 10 10 10 9 9 9 9
10 9 9 8 8 7 6 4 4 4 4 5 4 4 4 4 4 4 3 3 3 3 3 3 4 5 5 5 5 6 6 6 5 5 5 11 11 11 10 9 9 8 8
10 9 9 9 8 8 6 5 4 4 4 5 4 5 5 4 4 4 4 3 3 3 3 3 4 4 4 4 5 5 5 5 5 5 4 7 11 11 10 9 9 9 8
10 9 9 9 9 8 7 6 4 4 5 4 4 5 5 4 4 4 4 3 3 3 4 4 5 4 4 4 5 5 4 5 4 5 4 4 5 9 11 10 10 9 8
9 9 9 8 9 8 7 6 4 4 5 4 4 5 5 5 5 4 4 3 4 3 3 4 4 4 3 3 3 3 3 3 4 4 4 4 4 4 8 11 11 10 8
9 9 8 8 9 8 7 6 5 5 4 4 4 4 5 5 5 4 4 4 4 4 3 3 3 3 4 3 3 3 3 3 3 3 4 4 4 4 4 7 10 10 9
8 8 8 8 8 7 6 5 4 5 4 3 3 4 6 5 6 5 4 5 5 4 4 4 4 3 3 3 3 3 2 2 2 2 3 3 3 4 4 4 4 6 9
7 8 8 8 8 7 6 6 5 5 4 4 3 5 6 6 6 5 4 5 4 4 5 5 5 5 3 3 2 2 2 1 1 1 1 1 2 3 3 4 3 3 3
8 8 8 8 8 8 6 5 4 5 4 3 3 4 5 6 6 5 6 5 5 4 6 6 5 4 3 3 2 2 1 2 1 0 0 1 1 1 2 3 3 3 3
8 8 7 8 8 8 8 5 5 4 3 3 4 4 5 5 6 6 6 5 5 5 5 6 6 5 4 2 2 2 2 2 1 1 1 0 0 0 1 1 2 2 2
8 8 8 7 7 8 8 8 9 7 6 5 5 4 5 6 5 6 6 6 6 5 6 6 6 5 5 4 2 1 1 0 2 2 2 1 1 1 1 1 1 1 1
7 7 7 7 7 7 8 9 9 7 5 4 5 6 6 5 5 5 6 6 6 5 6 6 6 5 4 4 3 2 2 2 2 2 2 2 2 1 1 1 1 1 1
5 6 6 7 7 7 7 8 9 9 8 8 7 7 6 4 4 5 6 6 6 5 6 6 5 6 5 5 4 3 3 3 3 3 2 2 2 2 2 1 1 1 1
Wind_Direction
160 158 152 146 135 127 121 116 110 106 102 99 96 92 90 87 84 83 82 80 78 77 76 74 73 71 70 70 69 67 66 65 65 65 66 72 74 75 75 73 77 80 79
154 156 150 145 136 128 123 117 110 106 102 99 96 94 91 88 85 84 82 81 80 79 77 75 75 73 71 70 70 69 67 65 65 63 66 76 72 73 73 68 64 76 79
151 151 151 141 135 130 125 119 113 108 104 101 97 94 93 90 86 84 82 82 80 79 78 76 75 73 71 69 70 70 68 65 61 53 68 79 78 74 75 73 73 75 78
150 150 149 138 136 131 126 121 116 109 104 101 98 94 92 90 87 85 83 82 80 79 78 76 74 74 71 70 71 71 68 64 53 45 67 71 76 74 74 74 74 75 77
149 149 140 138 137 133 128 123 117 112 107 102 98 94 92 91 87 85 83 81 80 79 78 77 75 73 72 71 71 70 67 63 53 62 67 67 70 71 73 72 74 75 75
148 147 139 138 137 134 131 128 122 117 111 106 101 96 92 90 88 86 84 81 81 81 82 80 78 75 74 73 71 68 63 54 66 69 67 67 69 69 72 74 74 76 75
146 144 141 138 136 133 131 129 124 120 115 109 103 99 94 91 89 86 85 83 82 84 83 83 80 77 76 74 71 66 58 42 63 68 66 66 66 67 69 72 73 73 74
144 142 141 135 131 130 130 128 124 121 116 110 105 101 96 92 90 89 86 84 83 84 83 82 80 78 75 73 70 63 50 41 66 68 68 67 62 66 68 69 71 71 72
142 141 140 141 136 129 126 122 118 116 113 111 106 101 96 92 91 90 87 86 86 85 83 83 81 78 74 71 68 62 52 37 59 63 64 64 62 66 66 68 71 71 70
142 144 141 142 140 139 133 119 113 110 108 107 103 97 94 92 91 89 89 87 88 87 83 83 81 78 74 71 67 59 46 45 61 62 61 62 60 65 64 64 68 70 69
149 151 149 147 144 142 138 128 122 115 110 110 106 101 103 107 102 95 83 82 86 87 84 83 81 77 75 73 64 50 39 58 60 57 59 57 59 63 65 64 66 68 70
167 162 157 154 152 147 142 140 139 135 131 128 125 122 115 106 96 93 81 75 79 82 83 80 79 79 73 78 67 45 58 58 57 57 57 55 60 63 63 65 67 68 69
172 166 163 159 156 155 150 146 143 140 137 131 128 125 121 113 109 105 103 90 86 86 86 86 83 73 69 67 63 60 56 52 53 52 51 52 60 61 63 63 65 69 70
177 175 169 165 159 159 156 151 149 147 142 136 134 134 132 125 121 115 110 106 101 91 92 87 79 78 75 72 69 66 61 54 53 50 44 45 53 56 60 61 65 69 71
184 180 175 169 164 161 156 155 152 151 147 142 140 141 141 137 131 124 116 109 105 104 106 100 93 85 77 70 66 65 64 60 56 55 50 43 45 48 53 57 61 67 70
188 183 178 174 171 168 163 158 155 151 148 148 144 145 147 142 137 132 123 116 114 114 109 109 103 92 79 74 71 66 63 60 57 54 51 45 43 43 48 52 54 59 64
190 183 181 176 174 174 168 160 154 152 155 154 149 150 150 148 147 141 133 127 121 120 119 114 107 99 91 84 75 65 60 56 56 49 44 39 42 41 40 43 47 49 54
188 184 181 177 175 174 169 160 155 157 157 157 155 153 154 155 153 145 141 134 130 130 131 127 124 113 102 91 78 64 59 55 51 45 44 44 39 34 39 38 39 39 45
189 185 180 178 177 173 165 157 154 155 155 154 159 159 159 160 160 152 145 139 141 137 135 131 129 125 117 100 84 66 54 49 47 49 51 47 46 39 37 39 37 34 35
190 185 181 177 174 167 158 150 149 152 154 156 163 167 164 164 164 154 147 149 149 145 142 140 134 125 120 113 97 74 55 50 41 44 43 47 45 39 35 33 32 31 32
190 187 183 180 175 168 165 166 167 169 166 166 166 169 171 167 166 159 153 155 160 158 154 151 140 133 128 132 121 102 73 57 57 45 30 39 50 40 39 33 28 23 26
195 191 187 185 180 177 175 173 172 163 167 164 164 168 173 171 170 166 161 166 168 159 156 157 153 150 150 174 170 159 169 181 142 46 16 14 36 37 38 31 27 22 19
199 196 192 188 184 182 175 160 147 145 149 163 170 173 175 173 176 172 171 171 174 173 171 171 173 170 166 179 212 219 207 201 169 171 207 240 315 336 13 19 16 15 19
203 198 192 187 185 184 178 173 171 180 182 186 181 179 178 178 175 177 176 177 178 182 179 181 184 183 175 178 187 260 289 219 210 188 189 203 242 280 316 346 351 360 10
201 194 190 186 186 185 186 183 183 187 182 173 174 178 179 178 177 182 180 182 184 186 185 187 187 188 193 194 191 189 189 208 227 226 218 206 217 228 261 293 295 324 344
198 192 187 186 188 187 189 189 191 189 181 176 180 181 182 179 181 187 185 188 189 189 189 191 191 195 201 204 202 202 203 207 210 214 226 229 228 217 232 252 267 279 312